Location: NJAA Observatory
(40.6819°N, 74.8979°W)
Time: 11:24:52
(UTC-04:00)

Iridium 84 - Visible Passes

Search period start: 07 July 2015 00:00
Search period end: 17 July 2015 00:00
Orbit: 776 x 779 km, 86.4° (Epoch: 07 July)

Date Brightness Start Highest point End Pass type
(mag) Time Alt. Az. Time Alt. Az. Time Alt. Az.
07 Jul 5.6 01:04:39 63° E 01:04:41 63° E 01:09:51 10° N visible
07 Jul 7.5 02:45:07 14° W 02:46:00 15° WNW 02:48:46 10° NW visible
08 Jul 6.5 00:31:14 34° E 00:31:16 34° E 00:35:58 10° NNE visible
08 Jul 6.8 02:11:42 26° W 02:12:05 27° WNW 02:16:25 10° NNW visible
08 Jul 7.3 23:57:48 19° E 23:57:57 19° E 00:01:36 10° NE visible
09 Jul 6.0 01:38:16 48° W 01:38:20 48° W 01:43:23 10° N visible
10 Jul 5.4 01:04:50 87° NNW 01:04:50 87° NNW 01:10:00 10° N visible
11 Jul 6.0 00:31:24 49° E 00:31:24 49° E 00:36:19 10° NNE visible
11 Jul 7.3 02:11:52 19° W 02:12:24 19° WNW 02:15:56 10° NNW visible
11 Jul 6.8 23:57:57 27° E 23:57:57 27° E 00:02:17 10° NNE visible
12 Jul 6.6 01:38:25 33° W 01:38:33 33° W 01:43:14 10° NNW visible
12 Jul 7.5 23:24:30 15° E 23:24:37 15° E 23:27:33 10° NE visible
13 Jul 5.7 01:04:58 62° WNW 01:04:58 62° WNW 01:10:02 10° N visible
14 Jul 5.5 00:31:30 71° ENE 00:31:30 71° ENE 00:36:32 10° N visible
14 Jul 7.7 02:11:59 13° W 02:12:46 13° WNW 02:14:57 10° NW visible
14 Jul 6.3 23:58:03 38° E 23:58:03 38° E 00:02:43 10° NNE visible
15 Jul 7.1 01:38:31 24° W 01:38:48 24° WNW 01:42:54 10° NNW visible
15 Jul 7.1 23:24:34 21° E 23:24:34 21° E 23:28:29 10° NNE visible
16 Jul 6.3 01:05:03 42° W 01:05:03 42° W 01:09:57 10° N visible
16 Jul 7.7 22:51:05 11° E 22:51:17 11° ENE 22:53:02 10° ENE visible
